Location: Bogis-Bossey
(46.3500°N, 6.1667°E)
Time: 16:52:32
(UTC+00:00)

CZ-4B R/B - Pass Details

Date: 17 August 2022
Orbit: 351 x 398 km, 97.6° (Epoch: 01 October)

Event Time Altitude Azimuth Distance (km) Brightness Sun altitude
Rises 21:07:22 0° 3° (N) 2,375 5.8 -21.4°
Reaches altitude 10° 21:09:31 10° 352° (N) 1,510 4.9 -21.6°
Maximum altitude 21:12:22 30° 290° (WNW) 794 3.1 -21.9°
Enters shadow 21:13:54 20° 244° (WSW) 1,046 3.3 -22.1°
